Home   Weather   Verdalsøra   Past weeks
Flag for Norway

Past Weather in Verdalsøra, Norway — Yesterday and Last 2 Weeks

Now
42 °F

Quite cool.


Feels Like: 38 °F
Forecast: 35 / 31 °F
Wind: 6 mph from West

Location: Levanger-Eggen

Current Time: Jan 21, 2020 at 4:12:27 am

Latest Report: Jan 21, 2020 at 3:00 am


Visibility: N/A

Pressure: 29.90 "Hg

Humidity: 53%

Dew Point: 26 °F

Location of VerdalsøraLocation

Past Weather in Verdalsøra — Graph

°F

Verdalsøra Temperature Yesterday

Maximum temperature yesterday: 49 °F (at 3:00 pm)
Minimum temperature yesterday: 36 °F (at 1:00 am)
Average temperature yesterday: 44 °F

High & Low Weather Summary for the Past Weeks

 TemperatureHumidityPressure
High49 °F (Jan 20, 3:00 pm)99% (Jan 6, 9:00 pm)30.33 "Hg (Jan 6, 9:00 pm)
Low26 °F (Jan 18, 6:00 pm)56% (Jan 14, 8:00 am)28.88 "Hg (Jan 15, 6:00 am)
Average36 °F88%29.48 "Hg
* Reported Jan 6 2:00 am — Jan 21 2:00 am, Verdalsøra. Weather by CustomWeather, © 2020

Note: Actual official high and low records may vary slightly from our data, if they occured in-between our weather recording intervals... More about our weather records

Verdalsøra Weather History for the Previous 24 Hours

Scroll right to see more
 ConditionsComfort  
Time TempWeatherWind HumidityBarometerVisibility
2:00 am
Tue, Jan 21
42 °FQuite cool.7 mph63%29.88 "HgN/A
1:00 am43 °FQuite cool.8 mph62%29.86 "HgN/A
12:00 am44 °FQuite cool.9 mph59%29.82 "HgN/A
11:00 pm
Mon, Jan 20
45 °FCool.8 mph70%29.80 "HgN/A
10:00 pm45 °FCool.9 mph77%29.79 "HgN/A
9:00 pm45 °FCool.8 mph87%29.79 "HgN/A
8:00 pm46 °FCool.12 mph85%29.77 "HgN/A
7:00 pm48 °FCool.10 mph85%29.77 "HgN/A
6:00 pm49 °FCool.13 mph82%29.78 "HgN/A
5:00 pm48 °FCool.13 mph83%29.80 "HgN/A
4:00 pm48 °FCool.13 mph82%29.81 "HgN/A
3:00 pm49 °FCool.12 mph79%29.83 "HgN/A
2:00 pm46 °FCool.6 mph93%29.86 "HgN/A
1:00 pm46 °FCool.6 mph94%29.87 "HgN/A
12:00 pm44 °FQuite cool.6 mph96%29.93 "HgN/A
11:00 am44 °FQuite cool.7 mph96%29.96 "HgN/A
10:00 am43 °FQuite cool.7 mph94%30.00 "HgN/A
9:00 am42 °FQuite cool.6 mph96%30.02 "HgN/A
8:00 am45 °FQuite cool.6 mph89%30.04 "HgN/A
7:00 am44 °FQuite cool.6 mph91%30.05 "HgN/A
6:00 am46 °FCool.7 mph85%30.04 "HgN/A
5:00 am43 °FQuite cool.7 mph92%30.05 "HgN/A
4:00 am40 °FQuite cool.7 mph95%30.06 "HgN/A
Weather by CustomWeather, © 2020

See weather overview

Advertising